Regional Weather Roundup
Issued by NWS New Orleans/Baton Rouge, LA

Home | Current Version | Previous Version | Graphics & Text | Print | Product List | Glossary On
Versions: 1 2 3 4 5 6 7 8 9 10 11 12 13 14 15 16 17 18 19 20 21 22 23 24 25 26 27 28 29 30 31 32 33 34 35 36 37 38 39 40 41 42 43 44 45 46 47 48 49 50
810
ASUS44 KLIX 300805
RWRLIX
NEW ORLEANS REGIONAL WEATHER ROUNDUP
NATIONAL WEATHER SERVICE NEW ORLEANS LA
300 AM CDT THU OCT 30 2014

NOTE: "FAIR" INDICATES FEW OR NO CLOUDS BELOW 12,000 FEET WITH NO
      SIGNIFICANT WEATHER AND/OR OBSTRUCTIONS TO VISIBILITY.
      SKY/WX - SKY CONDITION AND SIGNIFICANT WEATHER.
      TMP - AIR TEMPERATURE.     DP    - DEWPOINT TEMPERATURE.
      RH  - RELATIVE HUMIDITY.   PRES  - PRESSURE.
      HI  - HEAT INDEX.          WCI   - WIND CHILL INDEX.

*  THESE STATIONS ARE NOT NWS OR FAA STATIONS AND ARE NOT UNDER
   NWS QUALITY CONTROL.

LAZ038-040-048-061>063-065>067-069-300900-
SOUTHEAST LOUISIANA

CITY           SKY/WX    TMP DP  RH WIND       PRES   REMARKS
N.O. AUDUBON     N/A     67  50  54 MISG        N/A
N.O. INTL ARPT CLEAR     67  49  52 NE16      30.06F
N.O. LAKEFRONT CLOUDY    69  51  52 NE22      30.06F
N.O. DOWNTOWN* CLOUDY    68  46  45 N9G16     30.06F
SLIDELL        CLOUDY    62  50  64 N6        30.07S
BATON ROUGE    CLEAR     56  48  74 NE6       30.09F
BOOTHVILLE     MOCLDY    70  63  78 N10G17    30.03F
BELLE CHASSE   MOCLDY    66  51  58 NE9       30.05F
BOGALUSA*        N/A     57  49  74 N3        30.10F
NEW ROADS*       N/A     52  49  87 CALM      30.10S
GONZALES*      CLOUDY    62  53  72 N5        30.07F
HAMMOND*       NOT AVBL
HOUMA*         MOCLDY    64  58  81 N7        30.05F
PORT FOURCHON* CLOUDY    72  66  83 N14       30.06F

$$

MSZ070-080>082-300900-
SOUTHERN MISSISSIPPI

CITY           SKY/WX    TMP DP  RH WIND       PRES   REMARKS
MCCOMB         CLEAR     55  45  68 N5        30.10F
GULFPORT       PTCLDY    61  48  62 N9        30.05F
BILOXI         PTCLDY    62  52  70 N10       30.05F
PASCAGOULA     PTCLDY    61  55  81 N9        30.05F

$$

COASTAL OBSERVATIONS
LAKE AND NEARSHORE STATIONS

STATION/POSITION TIME  TEMP    WIND        PRES    WAVE
                       AIR SEA DIR/SP/G            HT/PER
                 (UTC) (F)     (DEG/KT/KT) (MB)    (FT/S)
PASCAGOULA       0800   63      10/ 10/ 13 1016.8
WAVELAND YACHT   0800   64      30/ 14/ 17 1017.2
GRAND ISLE       0800   71 77   40/ 14/ 19 1017.3
SOUTHWEST PASS   0800   71 78              1016.6
NEW CANAL        0800   68 72   60/ 19/ 21 1018.1
SHELL BEACH      0800   68 70   30/ 19/ 21 1017.6

OFFSHORE STATIONS

STATION/POSITION TIME  TEMP    WIND        PRES    WAVE
                       AIR SEA DIR/SP/G            HT/PER
                 (UTC) (F)     (DEG/KT/KT) (MB)    (FT/S)
64 S DAUPHIN ISL 0708   73 78   30/ 17/ 21 1016.0    3/ 4

$$




USA.gov is the U.S. government's official web portal to all federal, state and local government web resources and services.